Location: Newark
(34.4697°S, 57.8467°W)
Time: 19:08:20
(UTC+00:00)

N. Korean satellite - Visible Passes

Search period start: 19 July 2019 00:00
Search period end: 29 July 2019 00:00
Orbit: 456 x 508 km, 97.2° (Epoch: 18 July)

Date Brightness Start Highest point End Pass type
(mag) Time Alt. Az. Time Alt. Az. Time Alt. Az.
19 Jul 8.9 08:27:40 10° NE 08:30:38 22° ESE 08:31:27 21° SE visible
19 Jul 8.2 10:01:17 10° NW 10:03:55 18° W 10:05:46 14° WSW visible
19 Jul 6.9 21:30:21 10° SSE 21:33:44 43° E 21:37:02 10° N visible
20 Jul 9.9 08:04:39 10° E 08:05:44 11° ESE 08:06:09 11° ESE visible
20 Jul 7.1 09:35:14 10° NNW 09:38:44 39° W 09:40:28 24° SW visible
20 Jul 9.3 22:39:20 10° SSW 22:41:47 18° WSW 22:44:12 10° WNW visible
21 Jul 6.5 09:09:54 10° NNE 09:13:37 89° ESE 09:15:10 34° S visible
21 Jul 7.9 22:13:32 10° S 22:16:50 39° WSW 22:20:04 10° NW visible
22 Jul 8.0 08:45:08 10° NE 08:48:35 38° ESE 08:49:52 28° SSE visible
22 Jul 8.7 10:21:26 10° WNW 10:22:07 10° W 10:22:48 10° W visible
22 Jul 6.4 21:48:15 10° SSE 21:51:47 85° E 21:55:13 10° N visible
23 Jul 9.2 08:21:01 10° ENE 08:23:38 18° ESE 08:24:34 17° SE visible
23 Jul 7.9 09:53:55 10° NNW 09:56:52 22° W 09:58:53 15° SW visible
23 Jul 9.8 22:59:00 10° WSW 22:59:39 10° WSW 23:00:19 10° W visible
24 Jul 6.8 09:28:05 10° N 09:31:41 48° W 09:33:35 24° SW visible
24 Jul 9.0 22:32:00 10° SSW 22:34:45 22° WSW 22:37:28 10° NW visible
25 Jul 6.8 09:02:54 10° NNE 09:06:35 71° ESE 09:08:18 30° S visible
25 Jul 7.4 22:06:22 10° S 22:09:45 49° WSW 22:13:06 10° NNW visible
26 Jul 8.4 08:38:17 10° NE 08:41:34 31° ESE 08:43:00 23° SSE visible
26 Jul 8.5 10:13:18 10° WNW 10:15:01 13° W 10:16:43 10° WSW visible
26 Jul 6.4 21:41:12 10° SSE 21:44:41 66° E 21:48:06 10° N visible
27 Jul 9.5 08:14:28 10° ENE 08:16:38 15° ESE 08:17:43 13° SE visible
27 Jul 7.6 09:46:37 10° NNW 09:49:46 27° W 09:52:02 15° SW visible
27 Jul 9.6 22:50:59 10° SW 22:52:37 13° WSW 22:54:13 10° W visible
28 Jul 6.5 09:20:58 10° N 09:24:36 61° W 09:26:46 23° SSW visible
28 Jul 8.7 22:24:42 10° SSW 22:27:41 27° WSW 22:30:38 10° NW visible
